Wind_Speed
22 20 20 20 18 18 18 18 18 18 19 21 21 20 21 21 21 21 20 19 19 18 17 17 17 17 16 15 15 15 15 15 15 15 15 15 15 16 17 17 17 17 17 17
23 22 22 22 20 20 20 19 19 19 20 22 21 21 21 22 22 21 20 20 19 18 17 17 17 16 16 15 15 15 15 15 15 14 14 15 15 16 16 16 16 16 17 17
24 23 23 23 22 22 21 21 21 21 22 23 23 22 22 22 22 21 20 19 18 17 16 17 16 16 16 15 14 14 14 14 14 14 14 14 15 15 15 16 16 16 17 18
25 25 25 23 22 23 23 23 23 23 23 24 24 22 22 21 22 22 20 19 18 17 16 16 16 15 15 14 13 13 13 14 13 13 13 14 14 15 16 16 17 17 17 17
26 26 25 24 24 24 24 24 24 24 25 26 25 24 23 22 22 22 20 19 19 17 16 16 15 15 14 13 13 13 13 13 13 13 13 14 14 15 15 16 16 16 17 17
27 27 27 26 26 26 26 26 26 27 27 27 25 24 23 22 21 20 19 19 18 18 17 16 15 14 14 13 13 13 12 12 13 13 13 14 15 15 16 16 16 16 17 17
28 28 27 27 28 27 27 28 29 28 28 27 26 24 24 23 21 20 20 20 19 19 19 18 17 15 14 14 13 13 13 13 14 13 13 14 15 15 15 15 16 16 17 17
27 28 27 28 28 28 29 29 29 29 29 28 26 25 24 23 23 22 22 21 20 20 19 18 18 17 16 15 14 14 14 14 14 15 14 15 15 15 15 15 16 16 17 17
29 29 29 29 29 30 30 30 29 30 29 28 27 26 26 24 23 23 23 22 21 20 19 19 19 18 17 16 16 16 16 15 16 16 15 15 15 15 15 16 16 17 17 17
30 29 29 29 30 31 31 30 30 29 29 28 27 27 26 25 24 23 23 23 22 21 20 20 20 19 18 18 18 18 18 17 17 16 16 16 16 16 16 16 16 17 17 17
31 30 31 31 31 32 32 31 32 31 30 29 29 28 28 27 26 25 24 23 23 22 21 20 20 19 19 19 19 18 18 18 18 17 17 17 17 17 16 16 17 17 17 17
32 32 33 33 32 31 31 31 31 31 29 29 30 29 29 28 27 26 25 24 23 22 21 21 20 20 20 19 19 19 19 20 19 19 18 18 18 17 16 16 17 17 17 18
33 32 32 32 31 31 32 32 31 30 30 30 30 29 29 29 29 27 26 25 25 24 23 22 21 21 20 20 20 20 20 20 20 19 19 18 18 18 17 17 17 17 17 17
32 31 31 30 31 31 30 31 31 30 30 30 30 29 29 28 28 28 27 26 25 25 24 23 22 22 21 21 21 21 21 21 21 20 20 19 18 18 18 17 17 17 17 16
31 31 31 30 31 31 30 30 30 30 30 30 30 29 28 28 28 27 27 26 26 26 25 24 23 22 22 22 22 22 23 23 22 21 20 19 19 19 19 18 17 17 17 17
31 31 31 31 30 30 30 30 30 30 30 30 30 29 28 28 27 27 27 27 27 27 26 25 23 23 23 22 23 23 23 22 21 21 21 20 20 19 19 18 17 17 17 16
30 31 31 30 30 30 30 29 29 30 30 30 29 29 28 28 27 27 27 26 26 25 24 23 23 23 22 22 22 23 22 22 22 22 21 21 20 19 19 19 18 17 17 16
30 29 29 29 29 29 29 29 29 29 29 29 29 28 28 28 27 27 26 25 25 24 24 23 23 23 22 22 22 23 22 22 23 21 21 21 21 20 19 19 18 17 17 16
29 29 29 29 29 30 30 30 29 28 28 28 29 29 29 28 27 26 26 26 26 25 25 24 24 24 23 23 23 23 22 22 22 21 21 21 20 19 19 19 18 17 16 16
28 28 28 28 28 28 29 29 29 28 28 27 28 28 27 27 27 27 27 26 26 26 26 25 25 25 24 24 24 23 23 23 22 21 20 20 19 19 19 18 17 16 16 15
27 27 26 26 26 26 26 27 28 27 26 26 26 26 26 26 26 26 27 26 26 26 26 26 25 25 25 24 24 23 22 22 22 21 20 20 19 18 18 18 17 16 16 15
25 25 25 24 24 23 24 24 25 25 25 25 25 26 26 26 26 26 26 26 26 25 25 25 25 24 24 24 24 23 22 22 21 21 20 19 18 18 17 17 16 15 15 15
24 24 24 23 23 23 24 24 24 23 23 24 24 24 25 25 25 25 25 26 26 26 26 26 25 25 25 25 24 23 23 22 21 20 19 19 18 18 17 16 15 15 15 15
25 24 23 23 23 22 22 22 23 23 23 24 24 23 23 23 24 25 26 26 27 26 27 27 26 26 25 24 23 23 22 21 20 19 18 18 17 16 16 15 15 15 15 15
24 23 23 23 23 23 22 21 21 22 22 22 22 23 23 24 24 24 25 25 25 26 26 26 26 25 24 24 23 22 21 20 19 18 17 17 16 16 16 15 15 15 15 15
24 23 23 23 23 22 22 21 21 21 22 21 21 22 22 23 24 24 24 24 24 24 24 23 23 22 22 22 21 20 19 19 18 17 16 16 16 16 16 16 16 16 16 15
24 23 23 22 22 22 22 21 22 22 21 21 21 22 22 23 23 23 23 23 22 22 22 22 21 21 20 20 19 19 19 18 18 19 18 17 17 17 17 17 16 16 16 16
Wind_Direction
259 261 264 268 267 265 264 268 273 275 279 283 287 292 296 298 299 301 302 304 304 306 308 310 313 314 316 319 325 329 331 330 329 331 334 338 339 340 341 342 342 340 341 343
263 262 262 262 263 264 264 267 270 271 274 277 282 286 289 294 296 298 300 302 302 301 305 308 310 310 312 314 320 325 328 331 333 335 336 340 342 344 346 347 347 347 345 345
265 264 262 261 262 264 267 269 271 271 271 275 278 282 285 287 291 294 298 299 299 298 301 305 307 309 310 312 316 320 326 331 334 337 340 342 346 348 347 347 347 346 346 345
266 265 264 266 264 263 264 266 267 269 272 277 279 282 285 287 288 290 294 295 294 293 295 299 301 304 306 309 313 317 323 327 331 335 339 342 346 348 349 350 348 347 349 349
263 264 266 266 264 262 262 266 269 270 271 274 277 279 281 282 284 287 290 291 292 291 292 294 297 300 302 305 310 313 319 325 330 334 337 338 341 342 344 344 346 348 350 350
263 264 264 264 262 261 263 265 268 269 272 275 276 278 278 278 280 281 284 288 289 291 293 292 293 295 297 299 304 309 314 321 326 329 331 333 336 338 338 341 344 345 347 346
263 264 263 264 265 264 263 264 269 271 273 274 276 276 276 276 276 279 283 285 287 288 289 289 289 288 290 294 298 301 306 315 319 320 323 327 330 333 336 339 341 342 343 343
263 262 259 262 262 261 263 266 268 269 271 273 273 272 272 273 273 276 278 281 284 286 285 286 285 284 285 287 290 294 300 307 314 315 317 322 326 330 333 335 336 338 338 339
260 259 261 262 261 261 263 264 264 266 269 271 271 271 269 270 272 273 275 277 279 282 282 282 281 281 281 283 285 288 294 300 307 311 314 317 318 321 325 328 331 333 335 335
258 258 259 260 260 260 262 264 265 266 267 267 268 268 268 267 269 272 273 273 275 277 279 280 279 277 278 280 282 285 289 295 302 305 308 311 313 314 319 323 326 328 330 330
259 260 262 263 260 260 262 263 264 264 264 264 266 267 268 269 268 269 269 269 271 273 275 276 276 277 277 278 280 282 287 290 297 300 303 306 307 310 313 317 320 322 324 325
260 260 262 263 263 261 260 260 262 263 263 263 264 265 266 267 267 266 266 266 267 269 271 272 273 275 277 276 277 280 284 288 291 294 297 300 302 304 307 311 315 319 321 322
261 263 265 267 267 263 260 261 263 264 263 263 264 265 264 264 264 264 264 264 264 265 266 268 270 271 273 274 276 278 282 284 287 288 291 294 297 299 303 306 310 314 317 319
264 264 265 265 264 263 262 262 262 263 262 263 264 264 263 263 263 263 263 262 262 262 263 264 266 268 271 273 275 277 279 281 282 284 286 290 292 295 299 301 305 309 313 315
265 265 266 266 265 264 264 265 264 263 261 262 262 261 261 262 264 264 263 262 261 261 262 263 265 267 269 272 274 276 277 278 278 279 283 286 288 291 294 297 300 304 308 312
263 265 265 266 265 264 264 264 263 262 262 261 260 260 260 260 261 261 262 262 262 260 260 262 264 267 269 272 274 276 276 276 276 277 279 282 285 287 290 293 297 301 305 308
262 264 265 266 267 265 264 263 264 264 263 261 260 259 259 259 260 262 262 262 262 260 261 261 263 265 267 269 272 274 273 274 276 277 278 279 281 283 287 290 294 297 300 303
261 263 265 267 268 266 264 264 265 265 263 261 259 257 256 257 258 259 259 258 259 259 259 260 262 264 265 266 269 270 273 275 274 274 277 278 279 281 282 286 291 293 294 298
262 263 264 266 266 266 266 265 265 264 262 259 258 256 255 255 256 257 258 259 258 257 257 259 261 262 262 263 265 268 270 272 272 274 276 277 277 277 278 281 285 289 292 295
264 265 266 265 265 265 265 264 263 262 261 259 257 256 256 257 258 259 258 258 257 256 257 259 261 262 264 265 267 269 271 271 271 273 275 275 275 276 275 276 279 283 286 292
264 265 266 266 265 264 264 264 263 262 261 260 259 257 257 257 258 258 257 256 257 257 257 258 259 261 262 264 267 269 270 271 270 271 273 275 275 274 274 274 274 278 285 292
264 265 266 267 268 265 265 265 263 261 258 257 257 258 258 257 256 257 256 256 256 257 258 257 258 260 263 266 267 268 270 270 268 268 270 271 271 270 269 270 272 276 282 288
266 267 268 268 267 266 266 264 261 259 258 257 258 258 257 256 256 256 256 256 258 258 258 259 259 261 264 266 266 266 268 268 266 266 266 266 266 266 267 269 270 275 281 287
265 266 266 265 267 269 268 264 260 259 259 257 257 256 256 258 258 257 257 257 256 257 259 259 259 260 261 262 264 265 265 265 263 262 264 266 265 265 266 265 265 270 277 283
261 262 264 263 264 267 267 265 262 257 254 255 255 254 255 257 260 260 259 258 256 256 257 257 257 257 257 257 257 259 262 261 259 260 261 262 262 263 265 263 264 268 275 281
260 261 263 263 263 263 263 263 263 259 258 258 257 256 256 258 260 260 260 259 257 257 257 255 254 253 252 253 254 255 256 258 260 259 258 260 261 261 262 263 265 268 272 278
260 262 263 261 259 260 261 263 262 259 258 259 258 257 257 259 260 260 259 256 255 254 254 254 253 252 252 253 253 253 253 253 254 255 256 260 260 260 261 263 265 265 267 271
Height
5817 5818 5818 5819 5819 5820 5819 5819 5820 5820 5818 5816 5814 5813 5811 5809 5806 5805 5803 5801 5799 5797 5795 5793 5791 5788 5786 5783 5781 5778 5776 5773 5771 5768 5765 5762 5760 5757 5754 5750 5747 5744 5740 5737
5811 5813 5813 5814 5814 5814 5814 5815 5814 5814 5813 5810 5809 5808 5807 5805 5803 5801 5800 5798 5796 5794 5792 5790 5788 5786 5783 5781 5779 5776 5774 5772 5769 5766 5764 5761 5758 5755 5752 5749 5746 5743 5739 5736
5805 5806 5806 5807 5809 5809 5809 5808 5808 5807 5807 5805 5804 5803 5802 5800 5798 5797 5796 5794 5792 5790 5789 5787 5785 5783 5781 5779 5777 5775 5772 5770 5767 5765 5762 5760 5757 5754 5752 5748 5745 5742 5738 5735
5797 5799 5799 5803 5803 5803 5803 5802 5802 5801 5801 5800 5798 5798 5796 5795 5794 5792 5791 5789 5788 5786 5785 5784 5782 5780 5778 5776 5775 5773 5771 5768 5766 5764 5761 5759 5756 5754 5751 5748 5744 5741 5737 5734
5791 5791 5792 5795 5795 5795 5796 5795 5795 5794 5794 5793 5793 5792 5791 5790 5789 5788 5787 5785 5784 5782 5781 5780 5779 5777 5776 5774 5772 5770 5769 5767 5764 5762 5760 5758 5755 5753 5750 5747 5744 5740 5737 5733
5784 5784 5786 5787 5787 5788 5790 5788 5787 5787 5787 5787 5787 5786 5785 5785 5784 5783 5782 5781 5780 5779 5778 5777 5775 5774 5773 5772 5770 5768 5767 5765 5763 5761 5759 5756 5754 5752 5749 5746 5743 5740 5736 5733
5775 5776 5778 5778 5779 5781 5782 5781 5780 5780 5780 5780 5780 5780 5779 5779 5778 5777 5777 5777 5776 5775 5774 5773 5772 5771 5770 5769 5767 5766 5765 5763 5761 5759 5757 5755 5753 5750 5747 5744 5742 5738 5735 5732
5768 5769 5771 5770 5771 5772 5772 5772 5772 5772 5773 5773 5773 5773 5773 5773 5772 5772 5772 5772 5771 5770 5769 5768 5768 5767 5766 5765 5764 5763 5762 5761 5759 5757 5755 5753 5750 5748 5745 5743 5740 5737 5734 5731
5761 5762 5761 5762 5763 5763 5763 5763 5764 5765 5765 5766 5766 5766 5767 5767 5767 5767 5766 5766 5766 5765 5764 5763 5763 5762 5762 5761 5761 5760 5759 5757 5755 5754 5752 5750 5748 5745 5743 5741 5738 5735 5732 5729
5751 5752 5753 5753 5753 5753 5754 5755 5756 5757 5757 5758 5758 5759 5759 5760 5760 5760 5760 5760 5760 5759 5759 5758 5758 5758 5757 5757 5756 5755 5754 5753 5752 5750 5749 5747 5745 5742 5740 5738 5736 5733 5730 5726
5742 5744 5744 5743 5744 5744 5745 5747 5747 5748 5749 5750 5750 5751 5751 5752 5752 5753 5753 5753 5753 5753 5753 5753 5753 5752 5752 5751 5751 5751 5749 5748 5747 5746 5745 5743 5741 5739 5737 5735 5732 5730 5727 5724
5733 5733 5734 5734 5735 5735 5736 5737 5738 5740 5741 5742 5742 5743 5743 5744 5744 5745 5745 5746 5746 5747 5747 5747 5747 5747 5746 5746 5746 5745 5745 5744 5743 5742 5740 5739 5737 5736 5733 5731 5729 5726 5723 5720
5724 5725 5725 5726 5726 5726 5728 5729 5730 5732 5732 5733 5734 5734 5735 5735 5736 5737 5738 5738 5739 5740 5740 5741 5741 5741 5741 5741 5741 5740 5739 5739 5737 5736 5735 5734 5733 5731 5729 5727 5725 5722 5720 5717
5716 5717 5717 5717 5718 5718 5719 5720 5721 5723 5723 5724 5725 5725 5726 5727 5728 5729 5730 5730 5731 5732 5733 5733 5734 5734 5734 5734 5734 5734 5734 5733 5732 5731 5730 5728 5727 5726 5724 5722 5720 5718 5716 5713
5708 5708 5709 5709 5709 5710 5711 5712 5713 5714 5715 5716 5716 5717 5718 5718 5719 5720 5721 5722 5723 5724 5725 5726 5727 5728 5728 5728 5728 5727 5727 5726 5725 5725 5724 5723 5721 5720 5719 5717 5716 5714 5712 5709
5699 5699 5700 5700 5701 5701 5702 5703 5704 5704 5705 5706 5707 5708 5709 5710 5711 5712 5713 5714 5715 5716 5718 5718 5719 5720 5721 5721 5721 5720 5719 5718 5718 5718 5717 5717 5716 5714 5713 5712 5711 5709 5707 5706
5690 5690 5691 5691 5692 5692 5693 5694 5694 5695 5696 5697 5698 5699 5700 5701 5703 5704 5705 5706 5707 5708 5709 5710 5712 5713 5713 5714 5713 5713 5712 5712 5711 5711 5711 5710 5710 5709 5708 5707 5706 5704 5703 5702
5681 5681 5682 5682 5682 5683 5684 5684 5685 5686 5686 5687 5689 5690 5692 5693 5694 5696 5697 5698 5699 5700 5702 5703 5705 5706 5706 5707 5706 5706 5705 5705 5705 5705 5704 5704 5703 5703 5702 5701 5700 5699 5698 5697
5672 5673 5673 5674 5674 5674 5674 5675 5676 5676 5677 5679 5680 5681 5683 5685 5686 5687 5689 5690 5691 5693 5695 5696 5698 5698 5699 5699 5699 5699 5699 5698 5698 5698 5698 5698 5697 5697 5696 5696 5695 5694 5693 5693
5664 5664 5664 5665 5665 5665 5665 5666 5667 5668 5669 5670 5671 5673 5675 5676 5677 5679 5680 5682 5683 5685 5687 5689 5690 5691 5692 5692 5692 5692 5692 5692 5692 5691 5691 5691 5691 5690 5690 5690 5690 5689 5689 5688
5656 5656 5656 5657 5657 5657 5657 5657 5658 5659 5660 5662 5663 5665 5666 5667 5669 5670 5672 5674 5676 5677 5679 5680 5682 5683 5684 5685 5685 5685 5685 5685 5685 5685 5685 5685 5684 5684 5684 5684 5684 5684 5684 5683
5647 5648 5649 5649 5649 5649 5649 5650 5650 5651 5653 5654 5655 5656 5658 5659 5661 5662 5664 5666 5668 5669 5671 5672 5674 5675 5676 5677 5678 5678 5678 5678 5678 5678 5678 5678 5678 5678 5679 5678 5678 5679 5679 5678
5640 5641 5641 5642 5642 5642 5642 5642 5643 5644 5645 5646 5648 5649 5651 5652 5653 5655 5657 5658 5660 5661 5663 5664 5666 5668 5669 5669 5670 5671 5671 5671 5672 5672 5672 5672 5672 5673 5673 5673 5673 5674 5674 5674
5633 5634 5634 5635 5635 5635 5635 5636 5636 5637 5639 5640 5641 5642 5644 5645 5646 5647 5649 5650 5652 5653 5655 5657 5658 5660 5661 5662 5663 5663 5664 5665 5665 5666 5666 5666 5667 5667 5667 5668 5669 5669 5669 5669
5626 5627 5627 5627 5628 5628 5629 5629 5630 5631 5632 5633 5634 5635 5636 5638 5639 5640 5641 5643 5644 5645 5647 5649 5650 5651 5653 5654 5655 5656 5657 5658 5659 5659 5660 5661 5661 5662 5662 5663 5664 5664 5665 5665
5619 5619 5620 5620 5621 5622 5622 5623 5624 5624 5625 5626 5627 5628 5629 5630 5632 5633 5634 5635 5636 5638 5639 5641 5642 5643 5645 5646 5648 5649 5651 5652 5653 5654 5654 5655 5656 5656 5657 5658 5659 5659 5660 5659
5612 5612 5613 5614 5614 5615 5616 5616 5617 5618 5619 5619 5620 5621 5622 5623 5624 5626 5627 5628 5629 5631 5632 5633 5635 5636 5638 5639 5641 5643 5644 5645 5647 5648 5649 5650 5651 5651 5652 5652 5653 5654 5654 5655